Time,TemperatureF,DewpointF,PressureIn,WindDirection,WindDirectionDegrees,WindSpeedMPH,WindSpeedGustMPH,Humidity,HourlyPrecipIn,Conditions,Clouds,dailyrainin,SoftwareType,DateUTC
2013-08-27 00:07:00,77.0,76.4,30.02,SE,135,3.7,-999.0,98,-99.99,,,0.00,Acu-Link.com,2013-08-27 05:07:00,
2013-08-27 00:22:00,76.3,75.7,30.02,SE,135,3.2,-999.0,98,-99.99,,,0.00,Acu-Link.com,2013-08-27 05:22:00,
2013-08-27 00:37:00,76.1,75.5,30.02,SE,135,3.2,-999.0,98,-99.99,,,0.00,Acu-Link.com,2013-08-27 05:37:00,
2013-08-27 00:52:00,75.7,75.1,30.01,SSE,157,5.8,-999.0,98,-99.99,,,0.00,Acu-Link.com,2013-08-27 05:52:00,
2013-08-27 01:07:00,75.7,75.1,30.02,SSE,157,5.8,-999.0,98,-99.99,,,0.00,Acu-Link.com,2013-08-27 06:07:00,
2013-08-27 01:22:00,75.7,75.1,30.02,SSE,157,8.9,-999.0,98,-99.99,,,0.00,Acu-Link.com,2013-08-27 06:22:00,
2013-08-27 01:38:00,75.9,75.3,30.02,SSE,157,5.8,-999.0,98,-99.99,,,0.00,Acu-Link.com,2013-08-27 06:38:00,
2013-08-27 01:53:00,75.9,75.3,30.03,South,180,4.7,-999.0,98,-99.99,,,0.00,Acu-Link.com,2013-08-27 06:53:00,
2013-08-27 02:08:00,75.7,75.1,30.02,SSE,157,5.8,-999.0,98,-99.99,,,0.00,Acu-Link.com,2013-08-27 07:08:00,
2013-08-27 02:23:00,75.7,75.1,30.02,SSE,157,4.2,-999.0,98,-99.99,,,0.00,Acu-Link.com,2013-08-27 07:23:00,
2013-08-27 02:38:00,75.7,75.1,30.02,SSE,157,4.2,-999.0,98,-99.99,,,0.00,Acu-Link.com,2013-08-27 07:38:00,
2013-08-27 02:53:00,75.7,75.1,30.02,SSE,157,5.3,-999.0,98,-99.99,,,0.00,Acu-Link.com,2013-08-27 07:53:00,
2013-08-27 03:10:00,75.7,75.1,30.01,SSE,157,3.2,-999.0,98,-99.99,,,0.00,Acu-Link.com,2013-08-27 08:10:00,
2013-08-27 03:26:00,75.7,75.1,30.01,South,180,2.7,-999.0,98,-99.99,,,0.00,Acu-Link.com,2013-08-27 08:26:00,
2013-08-27 03:41:00,75.7,75.1,30.01,SSE,157,4.2,-999.0,98,-99.99,,,0.00,Acu-Link.com,2013-08-27 08:41:00,
2013-08-27 03:56:00,75.7,75.1,30.01,SE,135,4.2,-999.0,98,-99.99,,,0.00,Acu-Link.com,2013-08-27 08:56:00,
2013-08-27 04:11:00,75.7,75.1,30.02,SE,135,6.3,-999.0,98,-99.99,,,0.00,Acu-Link.com,2013-08-27 09:11:00,
2013-08-27 04:26:00,75.4,74.8,30.02,SSE,157,3.7,-999.0,98,-99.99,,,0.00,Acu-Link.com,2013-08-27 09:26:00,
2013-08-27 04:41:00,75.2,74.6,30.02,SSE,157,5.3,-999.0,98,-99.99,,,0.00,Acu-Link.com,2013-08-27 09:41:00,
2013-08-27 04:56:00,74.8,74.2,30.03,SSE,157,4.7,-999.0,98,-99.99,,,0.00,Acu-Link.com,2013-08-27 09:56:00,
2013-08-27 05:12:00,74.7,74.1,30.03,ESE,112,4.7,-999.0,98,-99.99,,,0.00,Acu-Link.com,2013-08-27 10:12:00,
2013-08-27 05:27:00,74.8,74.2,30.03,SE,135,3.2,-999.0,98,-99.99,,,0.00,Acu-Link.com,2013-08-27 10:27:00,
2013-08-27 05:42:00,74.8,74.2,30.03,SSE,157,3.7,-999.0,98,-99.99,,,0.00,Acu-Link.com,2013-08-27 10:42:00,
2013-08-27 05:57:00,74.8,74.2,30.03,SE,135,3.7,-999.0,98,-99.99,,,0.00,Acu-Link.com,2013-08-27 10:57:00,
2013-08-27 06:12:00,74.7,74.1,30.04,SSE,157,4.7,-999.0,98,-99.99,,,0.00,Acu-Link.com,2013-08-27 11:12:00,
2013-08-27 06:27:00,74.5,73.9,30.04,SE,135,3.2,-999.0,98,-99.99,,,0.00,Acu-Link.com,2013-08-27 11:27:00,
2013-08-27 06:42:00,74.3,73.7,30.05,ESE,112,5.3,-999.0,98,-99.99,,,0.00,Acu-Link.com,2013-08-27 11:42:00,
2013-08-27 06:57:00,74.3,73.7,30.05,SSE,157,5.3,-999.0,98,-99.99,,,0.00,Acu-Link.com,2013-08-27 11:57:00,
2013-08-27 07:12:00,74.3,73.7,30.05,SE,135,4.7,-999.0,98,-99.99,,,0.00,Acu-Link.com,2013-08-27 12:12:00,
2013-08-27 07:28:00,74.5,73.9,30.05,SE,135,3.2,-999.0,98,-99.99,,,0.00,Acu-Link.com,2013-08-27 12:28:00,
2013-08-27 07:43:00,74.8,74.2,30.04,SE,135,4.2,-999.0,98,-99.99,,,0.00,Acu-Link.com,2013-08-27 12:43:00,
2013-08-27 07:58:00,75.0,74.4,30.05,SE,135,4.2,-999.0,98,-99.99,,,0.00,Acu-Link.com,2013-08-27 12:58:00,
2013-08-27 08:13:00,75.4,74.8,30.05,SE,135,5.3,-999.0,98,-99.99,,,0.00,Acu-Link.com,2013-08-27 13:13:00,
2013-08-27 08:28:00,75.7,75.1,30.06,SE,135,5.8,-999.0,98,-99.99,,,0.00,Acu-Link.com,2013-08-27 13:28:00,
2013-08-27 08:43:00,75.7,75.1,30.05,ESE,112,6.3,-999.0,98,-99.99,,,0.00,Acu-Link.com,2013-08-27 13:43:00,
2013-08-27 08:58:00,76.1,75.5,30.06,SE,135,4.7,-999.0,98,-99.99,,,0.00,Acu-Link.com,2013-08-27 13:58:00,
2013-08-27 09:13:00,76.6,76.0,30.07,SE,135,6.8,-999.0,98,-99.99,,,0.00,Acu-Link.com,2013-08-27 14:13:00,
2013-08-27 09:28:00,77.2,76.6,30.07,SSE,157,6.8,-999.0,98,-99.99,,,0.00,Acu-Link.com,2013-08-27 14:28:00,
2013-08-27 09:44:00,77.5,76.9,30.07,SSE,157,5.8,-999.0,98,-99.99,,,0.00,Acu-Link.com,2013-08-27 14:44:00,
2013-08-27 09:59:00,78.3,77.7,30.07,South,180,7.3,-999.0,98,-99.99,,,0.00,Acu-Link.com,2013-08-27 14:59:00,
2013-08-27 10:14:00,80.1,79.5,30.07,SSE,157,5.3,-999.0,98,-99.99,,,0.00,Acu-Link.com,2013-08-27 15:14:00,
2013-08-27 10:29:00,80.2,79.6,30.07,SSE,157,10.4,-999.0,98,-99.99,,,0.00,Acu-Link.com,2013-08-27 15:29:00,
2013-08-27 10:44:00,81.3,80.7,30.07,SSW,202,6.8,-999.0,98,-99.99,,,0.00,Acu-Link.com,2013-08-27 15:44:00,
2013-08-27 10:59:00,81.5,80.9,30.07,SSE,157,8.3,-999.0,98,-99.99,,,0.00,Acu-Link.com,2013-08-27 15:59:00,
2013-08-27 11:15:00,82.2,81.6,30.07,ESE,112,7.3,-999.0,98,-99.99,,,0.00,Acu-Link.com,2013-08-27 16:15:00,
2013-08-27 11:30:00,83.3,82.7,30.07,ESE,112,6.3,-999.0,98,-99.99,,,0.00,Acu-Link.com,2013-08-27 16:30:00,
2013-08-27 11:45:00,83.5,82.9,30.07,SE,135,7.8,-999.0,98,-99.99,,,0.00,Acu-Link.com,2013-08-27 16:45:00,
2013-08-27 12:00:00,84.6,84.0,30.07,South,180,7.8,-999.0,98,-99.99,,,0.00,Acu-Link.com,2013-08-27 17:00:00,
2013-08-27 12:15:00,84.7,84.1,30.06,SSE,157,6.8,-999.0,98,-99.99,,,0.00,Acu-Link.com,2013-08-27 17:15:00,
2013-08-27 12:30:00,86.4,85.8,30.05,South,180,9.4,-999.0,98,-99.99,,,0.00,Acu-Link.com,2013-08-27 17:30:00,
2013-08-27 12:46:00,87.8,87.2,30.04,SSE,157,9.9,-999.0,98,-99.99,,,0.00,Acu-Link.com,2013-08-27 17:46:00,
2013-08-27 13:01:00,86.9,86.3,30.04,SE,135,9.4,-999.0,98,-99.99,,,0.00,Acu-Link.com,2013-08-27 18:01:00,
2013-08-27 13:16:00,86.4,85.8,30.03,SSE,157,6.8,-999.0,98,-99.99,,,0.00,Acu-Link.com,2013-08-27 18:16:00,
2013-08-27 13:31:00,86.9,86.3,30.03,SE,135,6.8,-999.0,98,-99.99,,,0.00,Acu-Link.com,2013-08-27 18:31:00,
2013-08-27 13:46:00,88.2,87.6,30.02,SSW,202,8.9,-999.0,98,-99.99,,,0.00,Acu-Link.com,2013-08-27 18:46:00,
2013-08-27 14:01:00,86.9,86.3,30.02,SW,225,5.3,-999.0,98,-99.99,,,0.00,Acu-Link.com,2013-08-27 19:01:00,
2013-08-27 14:16:00,86.9,86.3,30.01,SSW,202,8.3,-999.0,98,-99.99,,,0.00,Acu-Link.com,2013-08-27 19:16:00,
2013-08-27 14:31:00,79.7,79.1,30.02,SW,225,10.4,-999.0,98,-99.99,,,0.01,Acu-Link.com,2013-08-27 19:31:00,
2013-08-27 14:46:00,78.1,77.5,30.02,West,270,7.8,-999.0,98,-99.99,,,0.04,Acu-Link.com,2013-08-27 19:46:00,
2013-08-27 15:02:00,79.9,79.3,30.02,SSW,202,4.2,-999.0,98,-99.99,,,0.04,Acu-Link.com,2013-08-27 20:02:00,
2013-08-27 15:17:00,77.9,77.3,30.02,SSE,157,4.7,-999.0,98,-99.99,,,0.06,Acu-Link.com,2013-08-27 20:17:00,
2013-08-27 15:32:00,77.9,77.3,30.02,SSW,202,6.8,-999.0,98,-99.99,,,0.07,Acu-Link.com,2013-08-27 20:32:00,
2013-08-27 15:47:00,77.9,77.3,30.02,South,180,7.3,-999.0,98,-99.99,,,0.07,Acu-Link.com,2013-08-27 20:47:00,
2013-08-27 16:02:00,78.4,77.8,30.01,South,180,5.8,-999.0,98,-99.99,,,0.07,Acu-Link.com,2013-08-27 21:02:00,
2013-08-27 16:33:00,79.9,79.3,30.00,South,180,3.2,-999.0,98,-99.99,,,0.07,Acu-Link.com,2013-08-27 21:33:00,
2013-08-27 16:48:00,80.2,79.6,30.00,South,180,5.8,-999.0,98,-99.99,,,0.07,Acu-Link.com,2013-08-27 21:48:00,
2013-08-27 17:03:00,80.6,80.0,30.00,SSW,202,5.3,-999.0,98,-99.99,,,0.07,Acu-Link.com,2013-08-27 22:03:00,
2013-08-27 17:18:00,80.4,79.8,29.99,South,180,8.9,-999.0,98,-99.99,,,0.07,Acu-Link.com,2013-08-27 22:18:00,
2013-08-27 17:33:00,80.6,80.0,29.99,SSW,202,5.8,-999.0,98,-99.99,,,0.07,Acu-Link.com,2013-08-27 22:33:00,
2013-08-27 17:48:00,81.1,80.5,29.99,South,180,4.2,-999.0,98,-99.99,,,0.07,Acu-Link.com,2013-08-27 22:48:00,
2013-08-27 18:04:00,81.7,81.1,29.99,SSW,202,5.3,-999.0,98,-99.99,,,0.07,Acu-Link.com,2013-08-27 23:04:00,
2013-08-27 18:19:00,81.9,81.3,29.99,SSW,202,4.2,-999.0,98,-99.99,,,0.07,Acu-Link.com,2013-08-27 23:19:00,
2013-08-27 18:34:00,81.7,81.1,30.01,SSW,202,3.2,-999.0,98,-99.99,,,0.07,Acu-Link.com,2013-08-27 23:34:00,
2013-08-27 18:49:00,81.3,80.7,30.01,South,180,2.7,-999.0,98,-99.99,,,0.07,Acu-Link.com,2013-08-27 23:49:00,
2013-08-27 19:04:00,81.1,80.5,30.02,SSW,202,2.2,-999.0,98,-99.99,,,0.07,Acu-Link.com,2013-08-28 00:04:00,
2013-08-27 19:19:00,80.8,80.2,30.01,SSW,202,0.0,-999.0,98,-99.99,,,0.07,Acu-Link.com,2013-08-28 00:19:00,
2013-08-27 19:34:00,79.9,79.3,30.00,SSW,202,0.0,-999.0,98,-99.99,,,0.07,Acu-Link.com,2013-08-28 00:34:00,
2013-08-27 19:49:00,79.0,78.4,29.99,SSW,202,0.0,-999.0,98,-99.99,,,0.07,Acu-Link.com,2013-08-28 00:49:00,
2013-08-27 20:04:00,78.1,77.5,30.01,SSW,202,0.0,-999.0,98,-99.99,,,0.07,Acu-Link.com,2013-08-28 01:04:00,
2013-08-27 20:35:00,76.3,75.7,30.00,SSW,202,0.0,-999.0,98,-99.99,,,0.07,Acu-Link.com,2013-08-28 01:35:00,
2013-08-27 20:50:00,75.4,74.8,30.01,SSW,202,0.0,-999.0,98,-99.99,,,0.07,Acu-Link.com,2013-08-28 01:50:00,
2013-08-27 21:05:00,74.8,74.2,30.01,SSW,202,0.0,-999.0,98,-99.99,,,0.07,Acu-Link.com,2013-08-28 02:05:00,
2013-08-27 21:20:00,74.7,74.1,30.01,SSW,202,2.7,-999.0,98,-99.99,,,0.07,Acu-Link.com,2013-08-28 02:20:00,
2013-08-27 21:35:00,74.7,74.1,30.01,SSW,202,2.7,-999.0,98,-99.99,,,0.07,Acu-Link.com,2013-08-28 02:35:00,
2013-08-27 22:05:00,73.9,73.3,30.01,SSW,202,2.2,-999.0,98,-99.99,,,0.07,Acu-Link.com,2013-08-28 03:05:00,
2013-08-27 22:20:00,74.1,73.5,30.01,SW,225,2.7,-999.0,98,-99.99,,,0.07,Acu-Link.com,2013-08-28 03:20:00,
2013-08-27 22:36:00,74.3,73.7,30.01,SW,225,3.2,-999.0,98,-99.99,,,0.07,Acu-Link.com,2013-08-28 03:36:00,
2013-08-27 23:06:00,74.5,73.9,30.02,SSW,202,0.0,-999.0,98,-99.99,,,0.07,Acu-Link.com,2013-08-28 04:06:00,
2013-08-27 23:21:00,73.8,73.2,30.03,SSW,202,0.0,-999.0,98,-99.99,,,0.07,Acu-Link.com,2013-08-28 04:21:00,
2013-08-27 23:36:00,72.7,72.1,30.02,SSW,202,2.2,-999.0,98,-99.99,,,0.07,Acu-Link.com,2013-08-28 04:36:00,
2013-08-27 23:51:00,72.1,71.5,30.02,SSW,202,1.7,-999.0,98,-99.99,,,0.07,Acu-Link.com,2013-08-28 04:51:00,